Time,TemperatureF,DewpointF,PressureIn,WindDirection,WindDirectionDegrees,WindSpeedMPH,WindSpeedGustMPH,Humidity,HourlyPrecipIn,Conditions,Clouds,dailyrainin,SoftwareType,DateUTC
2013-11-26 00:00:00,38.8,38.1,30.21,SSE,158,2.5,2.5,97,0.00,,---,0.00,VWS V14.01,2013-11-26 08:00:00,
2013-11-26 00:03:00,39.4,38.3,30.21,SSE,158,0.0,1.6,96,0.00,,---,0.00,VWS V14.01,2013-11-26 08:03:00,
2013-11-26 00:08:00,39.4,38.3,30.21,SSE,158,0.0,2.0,96,0.00,,---,0.00,VWS V14.01,2013-11-26 08:08:00,
2013-11-26 00:10:00,38.8,38.1,30.18,SSE,158,0.0,3.1,97,0.00,,---,0.00,VWS V14.01,2013-11-26 08:10:00,
2013-11-26 00:13:00,39.4,38.3,30.21,SSE,158,2.5,2.5,96,0.00,,---,0.00,VWS V14.01,2013-11-26 08:13:00,
2013-11-26 00:18:00,39.4,38.3,30.21,SSE,158,2.0,2.5,96,0.00,,---,0.00,VWS V14.01,2013-11-26 08:18:00,
2013-11-26 00:20:00,38.8,38.1,30.18,SSE,158,2.0,2.9,97,0.00,,---,0.00,VWS V14.01,2013-11-26 08:20:00,
2013-11-26 00:23:00,39.2,38.2,30.21,SSE,158,0.0,2.7,96,0.00,,---,0.00,VWS V14.01,2013-11-26 08:23:00,
2013-11-26 00:28:00,39.2,38.2,30.21,SSE,158,0.0,2.7,96,0.00,,---,0.00,VWS V14.01,2013-11-26 08:28:00,
2013-11-26 00:30:00,38.8,38.1,30.18,SSE,158,0.0,2.9,97,0.00,,---,0.00,VWS V14.01,2013-11-26 08:30:00,
2013-11-26 00:33:00,39.2,38.4,30.21,SSE,158,0.0,0.0,97,0.00,,---,0.00,VWS V14.01,2013-11-26 08:33:00,
2013-11-26 00:38:00,39.0,38.2,30.21,SSE,158,0.0,0.0,97,0.00,,---,0.00,VWS V14.01,2013-11-26 08:38:00,
2013-11-26 00:40:00,38.8,38.1,30.18,SSW,202,0.0,3.6,97,0.00,,---,0.00,VWS V14.01,2013-11-26 08:40:00,
2013-11-26 00:43:00,39.0,38.2,30.21,SSE,158,1.3,1.3,97,0.00,,---,0.00,VWS V14.01,2013-11-26 08:43:00,
2013-11-26 00:48:00,38.8,38.1,30.21,SE,135,2.0,2.9,97,0.00,,---,0.00,VWS V14.01,2013-11-26 08:48:00,
2013-11-26 00:50:00,38.8,38.1,30.21,SSE,158,0.0,2.0,97,0.00,,---,0.00,VWS V14.01,2013-11-26 08:50:00,
2013-11-26 00:53:00,38.8,38.1,30.21,South,180,0.0,1.6,97,0.00,,---,0.00,VWS V14.01,2013-11-26 08:53:00,
2013-11-26 00:58:00,38.8,38.1,30.21,SSE,158,1.6,2.2,97,0.00,,---,0.00,VWS V14.01,2013-11-26 08:58:00,
2013-11-26 01:03:00,38.8,38.1,30.21,SSE,158,2.7,2.7,97,0.00,,---,0.00,VWS V14.01,2013-11-26 09:03:00,
2013-11-26 01:08:00,38.8,38.1,30.18,SSE,158,0.0,3.1,97,0.00,,---,0.00,VWS V14.01,2013-11-26 09:08:00,
2013-11-26 01:10:00,38.8,38.1,30.21,SSE,158,3.4,6.0,97,0.00,,---,0.00,VWS V14.01,2013-11-26 09:10:00,
2013-11-26 01:13:00,38.8,38.1,30.18,SSE,158,2.0,2.5,97,0.00,,---,0.00,VWS V14.01,2013-11-26 09:13:00,
2013-11-26 01:18:00,38.8,38.1,30.18,SSE,158,2.9,2.9,97,0.00,,---,0.00,VWS V14.01,2013-11-26 09:18:00,
2013-11-26 01:20:00,39.0,38.2,30.18,SSW,202,1.3,4.0,97,0.00,,---,0.00,VWS V14.01,2013-11-26 09:20:00,
2013-11-26 01:23:00,38.8,38.1,30.18,South,180,0.0,2.0,97,0.00,,---,0.00,VWS V14.01,2013-11-26 09:23:00,
2013-11-26 01:28:00,38.8,38.1,30.18,SSE,158,0.9,2.9,97,0.00,,---,0.00,VWS V14.01,2013-11-26 09:28:00,
2013-11-26 01:30:00,39.2,38.4,30.18,SSE,158,2.9,3.6,97,0.00,,---,0.00,VWS V14.01,2013-11-26 09:30:00,
2013-11-26 01:33:00,38.8,38.1,30.18,SSE,158,2.5,3.6,97,0.00,,---,0.00,VWS V14.01,2013-11-26 09:33:00,
2013-11-26 01:38:00,38.8,38.1,30.18,SSW,202,0.0,3.6,97,0.00,,---,0.00,VWS V14.01,2013-11-26 09:38:00,
2013-11-26 01:40:00,39.2,38.4,30.21,SSE,158,2.7,2.9,97,0.00,,---,0.00,VWS V14.01,2013-11-26 09:40:00,
2013-11-26 01:43:00,38.7,37.9,30.18,South,180,1.1,1.1,97,0.00,,---,0.00,VWS V14.01,2013-11-26 09:43:00,
2013-11-26 01:48:00,38.7,37.9,30.18,South,180,0.9,2.0,97,0.00,,---,0.00,VWS V14.01,2013-11-26 09:48:00,
2013-11-26 01:50:00,39.2,38.4,30.21,SSE,158,3.6,3.6,97,0.00,,---,0.00,VWS V14.01,2013-11-26 09:50:00,
2013-11-26 01:53:00,38.8,38.1,30.21,SSE,158,2.7,2.7,97,0.00,,---,0.00,VWS V14.01,2013-11-26 09:53:00,
2013-11-26 01:58:00,38.8,38.1,30.21,SSE,158,2.2,2.7,97,0.00,,---,0.00,VWS V14.01,2013-11-26 09:58:00,
2013-11-26 02:00:00,39.4,38.6,30.21,SSE,158,3.4,4.3,97,0.00,,---,0.00,VWS V14.01,2013-11-26 10:00:00,
2013-11-26 02:03:00,38.8,38.1,30.21,SSE,158,1.3,2.2,97,0.00,,---,0.00,VWS V14.01,2013-11-26 10:03:00,
2013-11-26 02:08:00,38.8,38.1,30.21,SSE,158,1.3,6.0,97,0.00,,---,0.00,VWS V14.01,2013-11-26 10:08:00,
2013-11-26 02:10:00,39.4,38.6,30.21,SSW,202,0.9,4.0,97,0.00,,---,0.00,VWS V14.01,2013-11-26 10:10:00,
2013-11-26 02:13:00,39.0,38.2,30.21,SE,135,4.0,4.0,97,0.00,,---,0.00,VWS V14.01,2013-11-26 10:13:00,
2013-11-26 02:19:00,39.0,38.2,30.21,SSW,202,1.3,4.0,97,0.00,,---,0.00,VWS V14.01,2013-11-26 10:19:00,
2013-11-26 02:20:00,39.4,38.6,30.18,South,180,1.1,4.0,97,0.00,,---,0.00,VWS V14.01,2013-11-26 10:20:00,
2013-11-26 02:24:00,39.0,38.2,30.18,SSW,202,2.2,2.2,97,0.00,,---,0.00,VWS V14.01,2013-11-26 10:24:00,
2013-11-26 02:29:00,39.0,38.2,30.18,SE,135,3.1,3.6,97,0.00,,---,0.00,VWS V14.01,2013-11-26 10:29:00,
2013-11-26 02:30:00,39.4,38.6,30.18,South,180,0.0,2.5,97,0.00,,---,0.00,VWS V14.01,2013-11-26 10:30:00,
2013-11-26 02:34:00,39.2,38.4,30.18,SSE,158,2.5,2.9,97,0.00,,---,0.00,VWS V14.01,2013-11-26 10:34:00,
2013-11-26 02:39:00,39.2,38.4,30.21,SSE,158,0.0,2.9,97,0.00,,---,0.00,VWS V14.01,2013-11-26 10:39:00,
2013-11-26 02:40:00,39.2,38.4,30.21,SE,135,2.5,3.4,97,0.00,,---,0.00,VWS V14.01,2013-11-26 10:40:00,
2013-11-26 02:44:00,39.2,38.4,30.21,South,180,1.1,2.9,97,0.00,,---,0.00,VWS V14.01,2013-11-26 10:44:00,
2013-11-26 02:49:00,39.2,38.4,30.21,SSE,158,1.3,2.9,97,0.00,,---,0.00,VWS V14.01,2013-11-26 10:49:00,
2013-11-26 02:50:00,39.0,38.2,30.18,SSE,158,1.6,3.6,97,0.00,,---,0.00,VWS V14.01,2013-11-26 10:50:00,
2013-11-26 02:54:00,39.4,38.6,30.21,SSW,202,0.0,4.3,97,0.00,,---,0.00,VWS V14.01,2013-11-26 10:54:00,
2013-11-26 02:59:00,39.4,38.6,30.21,SSE,158,3.4,4.3,97,0.00,,---,0.00,VWS V14.01,2013-11-26 10:59:00,
2013-11-26 03:00:00,38.8,38.1,30.18,SE,135,2.5,2.7,97,0.00,,---,0.00,VWS V14.01,2013-11-26 11:00:00,
2013-11-26 03:04:00,39.6,38.8,30.21,SSE,158,0.9,4.0,97,0.00,,---,0.00,VWS V14.01,2013-11-26 11:04:00,
2013-11-26 03:09:00,39.4,38.6,30.21,SSW,202,0.9,4.0,97,0.00,,---,0.00,VWS V14.01,2013-11-26 11:09:00,
2013-11-26 03:10:00,38.8,38.1,30.18,South,180,0.0,3.4,97,0.00,,---,0.00,VWS V14.01,2013-11-26 11:10:00,
2013-11-26 03:14:00,39.4,38.6,30.21,SSE,158,1.6,4.0,97,0.00,,---,0.00,VWS V14.01,2013-11-26 11:14:00,
2013-11-26 03:19:00,39.4,38.6,30.21,South,180,1.1,4.0,97,0.00,,---,0.00,VWS V14.01,2013-11-26 11:19:00,
2013-11-26 03:20:00,38.7,37.9,30.18,SSE,158,0.0,2.0,97,0.00,,---,0.00,VWS V14.01,2013-11-26 11:20:00,
2013-11-26 03:24:00,39.4,38.6,30.18,SSW,202,0.0,1.3,97,0.00,,---,0.00,VWS V14.01,2013-11-26 11:24:00,
2013-11-26 03:29:00,39.4,38.6,30.18,SE,135,2.5,2.5,97,0.00,,---,0.00,VWS V14.01,2013-11-26 11:29:00,
2013-11-26 03:30:00,38.7,37.9,30.18,South,180,0.0,2.9,97,0.00,,---,0.00,VWS V14.01,2013-11-26 11:30:00,
2013-11-26 03:34:00,39.2,38.4,30.18,SSW,202,0.0,0.0,97,0.00,,---,0.00,VWS V14.01,2013-11-26 11:34:00,
2013-11-26 03:39:00,39.2,38.4,30.21,SSE,158,3.4,3.4,97,0.00,,---,0.00,VWS V14.01,2013-11-26 11:39:00,
2013-11-26 03:40:00,38.5,37.7,30.18,SSE,158,1.1,3.1,97,0.00,,---,0.00,VWS V14.01,2013-11-26 11:40:00,
2013-11-26 03:44:00,39.2,38.4,30.21,SE,135,2.0,2.5,97,0.00,,---,0.00,VWS V14.01,2013-11-26 11:44:00,
2013-11-26 03:49:00,39.0,38.2,30.21,SSE,158,1.6,3.6,97,0.00,,---,0.00,VWS V14.01,2013-11-26 11:49:00,
2013-11-26 03:50:00,38.5,37.7,30.18,SSE,158,1.3,2.7,97,0.00,,---,0.00,VWS V14.01,2013-11-26 11:50:00,
2013-11-26 03:54:00,39.0,38.2,30.18,SSE,158,1.1,1.6,97,0.00,,---,0.00,VWS V14.01,2013-11-26 11:54:00,
2013-11-26 03:59:00,38.8,38.1,30.18,SE,135,2.5,2.7,97,0.00,,---,0.00,VWS V14.01,2013-11-26 11:59:00,
2013-11-26 04:00:00,38.5,37.7,30.18,SSE,158,1.3,3.1,97,0.00,,---,0.00,VWS V14.01,2013-11-26 12:00:00,
2013-11-26 04:04:00,38.8,38.1,30.18,SSE,158,0.0,2.5,97,0.00,,---,0.00,VWS V14.01,2013-11-26 12:04:00,
2013-11-26 04:09:00,38.8,38.1,30.18,South,180,0.9,3.4,97,0.00,,---,0.00,VWS V14.01,2013-11-26 12:09:00,
2013-11-26 04:10:00,38.3,37.5,30.18,South,180,0.0,1.3,97,0.00,,---,0.00,VWS V14.01,2013-11-26 12:10:00,
2013-11-26 04:14:00,38.7,37.9,30.18,South,180,0.0,1.1,97,0.00,,---,0.00,VWS V14.01,2013-11-26 12:14:00,
2013-11-26 04:19:00,38.7,37.9,30.18,SSE,158,0.0,2.0,97,0.00,,---,0.00,VWS V14.01,2013-11-26 12:19:00,
2013-11-26 04:20:00,38.3,37.8,30.18,South,180,1.1,1.3,98,0.00,,---,0.00,VWS V14.01,2013-11-26 12:20:00,
2013-11-26 04:24:00,38.7,37.9,30.18,SSE,158,2.2,2.9,97,0.00,,---,0.00,VWS V14.01,2013-11-26 12:24:00,
2013-11-26 04:29:00,38.7,37.9,30.18,South,180,0.0,2.9,97,0.00,,---,0.00,VWS V14.01,2013-11-26 12:29:00,
2013-11-26 04:30:00,38.1,37.6,30.18,SSE,158,1.6,3.6,98,0.00,,---,0.00,VWS V14.01,2013-11-26 12:30:00,
2013-11-26 04:34:00,38.5,37.7,30.18,SSE,158,0.0,3.1,97,0.00,,---,0.00,VWS V14.01,2013-11-26 12:34:00,
2013-11-26 04:39:00,38.5,37.7,30.18,SSE,158,1.1,3.1,97,0.00,,---,0.00,VWS V14.01,2013-11-26 12:39:00,
2013-11-26 04:40:00,37.9,37.2,30.18,SSE,158,0.0,3.4,97,0.00,,---,0.00,VWS V14.01,2013-11-26 12:40:00,
2013-11-26 04:44:00,38.5,37.7,30.18,SSE,158,1.1,1.1,97,0.00,,---,0.00,VWS V14.01,2013-11-26 12:44:00,
2013-11-26 04:49:00,38.5,37.7,30.18,SSE,158,2.0,2.7,97,0.00,,---,0.00,VWS V14.01,2013-11-26 12:49:00,
2013-11-26 04:54:00,38.5,37.7,30.18,SSE,158,2.5,2.5,97,0.00,,---,0.00,VWS V14.01,2013-11-26 12:54:00,
2013-11-26 04:59:00,38.5,37.7,30.18,SSE,158,1.3,3.1,97,0.00,,---,0.00,VWS V14.01,2013-11-26 12:59:00,
2013-11-26 05:00:00,37.6,36.8,30.18,South,180,0.0,3.6,97,0.00,,---,0.00,VWS V14.01,2013-11-26 13:00:00,
2013-11-26 05:04:00,38.5,37.7,30.18,SSE,158,0.0,1.3,97,0.00,,---,0.00,VWS V14.01,2013-11-26 13:04:00,
2013-11-26 05:09:00,38.3,37.5,30.18,South,180,0.0,1.3,97,0.00,,---,0.00,VWS V14.01,2013-11-26 13:09:00,
2013-11-26 05:10:00,37.6,37.1,30.18,SSE,158,2.0,2.0,98,0.00,,---,0.00,VWS V14.01,2013-11-26 13:10:00,
2013-11-26 05:14:00,38.3,37.8,30.18,South,180,0.0,1.3,98,0.00,,---,0.00,VWS V14.01,2013-11-26 13:14:00,
2013-11-26 05:20:00,38.3,37.8,30.18,South,180,1.1,1.3,98,0.00,,---,0.00,VWS V14.01,2013-11-26 13:20:00,
2013-11-26 05:25:00,38.3,37.8,30.18,SSE,158,3.6,3.6,98,0.00,,---,0.00,VWS V14.01,2013-11-26 13:25:00,
2013-11-26 05:30:00,38.1,37.6,30.18,SSE,158,2.5,2.5,98,0.00,,---,0.00,VWS V14.01,2013-11-26 13:30:00,
2013-11-26 05:35:00,37.9,37.2,30.18,SSE,158,2.9,2.9,97,0.00,,---,0.00,VWS V14.01,2013-11-26 13:35:00,
2013-11-26 05:40:00,37.9,37.2,30.18,SSE,158,0.0,0.0,97,0.00,,---,0.00,VWS V14.01,2013-11-26 13:40:00,
2013-11-26 05:45:00,37.9,37.2,30.18,SSE,158,0.0,3.6,97,0.00,,---,0.00,VWS V14.01,2013-11-26 13:45:00,
2013-11-26 05:50:00,37.8,37.0,30.18,SSE,158,2.9,3.6,97,0.00,,---,0.00,VWS V14.01,2013-11-26 13:50:00,
2013-11-26 05:55:00,37.8,37.0,30.18,SSW,202,0.0,3.6,97,0.00,,---,0.00,VWS V14.01,2013-11-26 13:55:00,
2013-11-26 06:00:00,37.6,37.1,30.18,South,180,0.0,0.0,98,0.00,,---,0.00,VWS V14.01,2013-11-26 14:00:00,
2013-11-26 06:05:00,37.6,37.1,30.18,South,180,0.0,0.0,98,0.00,,---,0.00,VWS V14.01,2013-11-26 14:05:00,
2013-11-26 06:10:00,37.6,37.1,30.18,SE,135,2.5,2.5,98,0.00,,---,0.00,VWS V14.01,2013-11-26 14:10:00,
2013-11-26 06:15:00,37.6,36.8,30.18,SSE,158,1.6,2.9,97,0.00,,---,0.00,VWS V14.01,2013-11-26 14:15:00,
2013-11-26 06:20:00,37.4,36.6,30.18,SSE,158,1.6,1.6,97,0.00,,---,0.00,VWS V14.01,2013-11-26 14:20:00,
2013-11-26 06:25:00,37.4,36.6,30.18,SSE,158,2.7,2.9,97,0.00,,---,0.00,VWS V14.01,2013-11-26 14:25:00,
2013-11-26 06:30:00,37.2,36.7,30.18,SSE,158,2.7,2.7,98,0.00,,---,0.00,VWS V14.01,2013-11-26 14:30:00,
2013-11-26 06:35:00,37.2,36.7,30.15,SSE,158,1.6,2.7,98,0.00,,---,0.00,VWS V14.01,2013-11-26 14:35:00,
2013-11-26 06:40:00,37.2,36.7,30.15,SSE,158,0.0,0.0,98,0.00,,---,0.00,VWS V14.01,2013-11-26 14:40:00,
2013-11-26 06:45:00,37.0,36.5,30.15,SSE,158,3.1,3.1,98,0.00,,---,0.00,VWS V14.01,2013-11-26 14:45:00,
2013-11-26 06:50:00,37.0,36.5,30.18,SSE,158,0.9,2.7,98,0.00,,---,0.00,VWS V14.01,2013-11-26 14:50:00,
2013-11-26 06:55:00,37.0,36.5,30.18,SE,135,2.0,3.6,98,0.00,,---,0.00,VWS V14.01,2013-11-26 14:55:00,
2013-11-26 07:00:00,37.0,36.5,30.18,South,180,0.0,0.0,98,0.00,,---,0.00,VWS V14.01,2013-11-26 15:00:00,
2013-11-26 07:05:00,37.0,36.5,30.18,SSE,158,3.1,3.1,98,0.00,,---,0.00,VWS V14.01,2013-11-26 15:05:00,
2013-11-26 07:10:00,37.0,36.5,30.15,SSE,158,3.8,3.8,98,0.00,,---,0.00,VWS V14.01,2013-11-26 15:10:00,
2013-11-26 07:11:00,37.0,36.5,30.18,SSE,158,2.0,2.0,98,0.00,,---,0.00,VWS V14.01,2013-11-26 15:11:00,
2013-11-26 07:16:00,37.0,36.5,30.18,SSE,158,2.0,2.9,98,0.00,,---,0.00,VWS V14.01,2013-11-26 15:16:00,
2013-11-26 07:20:00,37.2,36.7,30.15,SSE,158,0.0,3.8,98,0.00,,---,0.00,VWS V14.01,2013-11-26 15:20:00,
2013-11-26 07:21:00,36.9,36.3,30.15,SSE,158,3.1,3.8,98,0.00,,---,0.00,VWS V14.01,2013-11-26 15:21:00,
2013-11-26 07:26:00,36.9,36.3,30.15,South,180,1.1,3.8,98,0.00,,---,0.00,VWS V14.01,2013-11-26 15:26:00,
2013-11-26 07:30:00,37.6,37.1,30.15,SSE,158,2.9,3.4,98,0.00,,---,0.00,VWS V14.01,2013-11-26 15:30:00,
2013-11-26 07:31:00,36.9,36.3,30.15,SSE,158,1.6,2.7,98,0.00,,---,0.00,VWS V14.01,2013-11-26 15:31:00,
2013-11-26 07:36:00,37.0,36.5,30.15,SSE,158,2.0,2.7,98,0.00,,---,0.00,VWS V14.01,2013-11-26 15:36:00,
2013-11-26 07:40:00,37.9,37.4,30.15,SSW,202,2.2,4.0,98,0.00,,---,0.00,VWS V14.01,2013-11-26 15:40:00,
2013-11-26 07:41:00,37.0,36.5,30.15,SE,135,3.8,3.8,98,0.00,,---,0.00,VWS V14.01,2013-11-26 15:41:00,
2013-11-26 07:46:00,37.2,36.7,30.15,South,180,1.1,3.8,98,0.00,,---,0.00,VWS V14.01,2013-11-26 15:46:00,
2013-11-26 07:50:00,38.3,37.8,30.15,South,180,1.6,3.8,98,0.00,,---,0.00,VWS V14.01,2013-11-26 15:50:00,
2013-11-26 07:51:00,37.0,36.5,30.15,SSE,158,2.7,2.7,98,0.00,,---,0.00,VWS V14.01,2013-11-26 15:51:00,
2013-11-26 07:56:00,37.0,36.5,30.15,SSE,158,2.0,2.9,98,0.00,,---,0.00,VWS V14.01,2013-11-26 15:56:00,
2013-11-26 08:00:00,38.5,38.0,30.15,SSE,158,2.0,3.1,98,0.00,,---,0.00,VWS V14.01,2013-11-26 16:00:00,
2013-11-26 08:01:00,37.0,36.5,30.15,SSE,158,0.0,2.0,98,0.00,,---,0.00,VWS V14.01,2013-11-26 16:01:00,
2013-11-26 08:06:00,37.2,36.7,30.15,SSE,158,2.5,2.5,98,0.00,,---,0.00,VWS V14.01,2013-11-26 16:06:00,
2013-11-26 08:10:00,38.8,38.3,30.15,SSE,158,2.5,3.6,98,0.00,,---,0.00,VWS V14.01,2013-11-26 16:10:00,
2013-11-26 08:11:00,37.2,36.7,30.15,SSE,158,0.0,3.8,98,0.00,,---,0.00,VWS V14.01,2013-11-26 16:11:00,
2013-11-26 08:16:00,37.2,36.7,30.15,SSE,158,1.6,3.8,98,0.00,,---,0.00,VWS V14.01,2013-11-26 16:16:00,
2013-11-26 08:20:00,39.6,38.8,30.15,South,180,2.5,3.8,97,0.00,,---,0.00,VWS V14.01,2013-11-26 16:20:00,
2013-11-26 08:21:00,37.4,36.9,30.15,SSE,158,3.1,3.1,98,0.00,,---,0.00,VWS V14.01,2013-11-26 16:21:00,
2013-11-26 08:26:00,37.4,36.9,30.15,SSE,158,0.9,3.4,98,0.00,,---,0.00,VWS V14.01,2013-11-26 16:26:00,
2013-11-26 08:30:00,39.9,39.1,30.15,SSW,202,1.3,4.0,97,0.00,,---,0.00,VWS V14.01,2013-11-26 16:30:00,
2013-11-26 08:32:00,37.6,37.1,30.15,SSE,158,3.1,3.1,98,0.00,,---,0.00,VWS V14.01,2013-11-26 16:32:00,
2013-11-26 08:37:00,37.8,37.2,30.15,SE,135,4.0,4.0,98,0.00,,---,0.00,VWS V14.01,2013-11-26 16:37:00,
2013-11-26 08:40:00,40.6,39.9,30.15,SSE,158,2.0,4.7,97,0.00,,---,0.00,VWS V14.01,2013-11-26 16:40:00,
2013-11-26 08:42:00,37.9,37.4,30.15,South,180,1.6,2.2,98,0.00,,---,0.00,VWS V14.01,2013-11-26 16:42:00,
2013-11-26 08:47:00,38.1,37.6,30.15,SSE,158,2.0,2.2,98,0.00,,---,0.00,VWS V14.01,2013-11-26 16:47:00,
2013-11-26 08:50:00,41.5,40.5,30.15,South,180,3.4,4.0,96,0.00,,---,0.00,VWS V14.01,2013-11-26 16:50:00,
2013-11-26 08:52:00,38.3,37.8,30.15,SSE,158,1.1,1.6,98,0.00,,---,0.00,VWS V14.01,2013-11-26 16:52:00,
2013-11-26 08:57:00,38.5,38.0,30.15,SSE,158,0.9,3.1,98,0.00,,---,0.00,VWS V14.01,2013-11-26 16:57:00,
2013-11-26 09:00:00,41.7,40.7,30.15,SSE,158,1.6,3.8,96,0.00,,---,0.00,VWS V14.01,2013-11-26 17:00:00,
2013-11-26 09:02:00,38.7,38.2,30.15,SSE,158,1.6,2.0,98,0.00,,---,0.00,VWS V14.01,2013-11-26 17:02:00,
2013-11-26 09:07:00,38.7,38.2,30.15,South,180,2.5,3.4,98,0.00,,---,0.00,VWS V14.01,2013-11-26 17:07:00,
2013-11-26 09:10:00,42.3,41.2,30.15,SSE,158,1.6,3.6,96,0.00,,---,0.00,VWS V14.01,2013-11-26 17:10:00,
2013-11-26 09:12:00,39.0,38.2,30.15,SSE,158,1.1,3.8,97,0.00,,---,0.00,VWS V14.01,2013-11-26 17:12:00,
2013-11-26 09:17:00,39.4,38.6,30.15,SSE,158,2.9,3.8,97,0.00,,---,0.00,VWS V14.01,2013-11-26 17:17:00,
2013-11-26 09:20:00,42.8,41.7,30.15,SSE,158,0.9,4.7,96,0.00,,---,0.00,VWS V14.01,2013-11-26 17:20:00,
2013-11-26 09:22:00,39.6,38.8,30.15,SSE,158,3.4,3.4,97,0.00,,---,0.00,VWS V14.01,2013-11-26 17:22:00,
2013-11-26 09:27:00,39.9,39.1,30.15,SSE,158,1.3,4.0,97,0.00,,---,0.00,VWS V14.01,2013-11-26 17:27:00,
2013-11-26 09:30:00,43.5,42.2,30.15,SSE,158,1.6,3.6,95,0.00,,---,0.00,VWS V14.01,2013-11-26 17:30:00,
2013-11-26 09:32:00,40.3,39.5,30.15,SSE,158,1.6,1.6,97,0.00,,---,0.00,VWS V14.01,2013-11-26 17:32:00,
2013-11-26 09:37:00,40.5,39.7,30.15,SSE,158,2.9,4.7,97,0.00,,---,0.00,VWS V14.01,2013-11-26 17:37:00,
2013-11-26 09:40:00,43.9,42.5,30.15,South,180,1.6,5.4,95,0.00,,---,0.00,VWS V14.01,2013-11-26 17:40:00,
2013-11-26 09:42:00,40.6,39.9,30.15,SSE,158,2.0,4.0,97,0.00,,---,0.00,VWS V14.01,2013-11-26 17:42:00,
2013-11-26 09:47:00,41.2,40.1,30.15,SE,135,2.0,4.0,96,0.00,,---,0.00,VWS V14.01,2013-11-26 17:47:00,
2013-11-26 09:50:00,45.1,43.5,30.15,SSE,158,2.0,3.6,94,0.00,,---,0.00,VWS V14.01,2013-11-26 17:50:00,
2013-11-26 09:52:00,41.5,40.5,30.15,SSE,158,1.3,3.8,96,0.00,,---,0.00,VWS V14.01,2013-11-26 17:52:00,
2013-11-26 09:57:00,41.7,40.7,30.15,SSE,158,2.2,3.8,96,0.00,,---,0.00,VWS V14.01,2013-11-26 17:57:00,
2013-11-26 10:00:00,46.0,44.4,30.15,SSW,202,1.3,3.6,94,0.00,,---,0.00,VWS V14.01,2013-11-26 18:00:00,
2013-11-26 10:02:00,41.9,40.8,30.15,SSW,202,2.7,3.6,96,0.00,,---,0.00,VWS V14.01,2013-11-26 18:02:00,
2013-11-26 10:07:00,42.1,41.0,30.15,SSE,158,0.0,3.6,96,0.00,,---,0.00,VWS V14.01,2013-11-26 18:07:00,
2013-11-26 10:10:00,46.9,45.0,30.12,SSW,202,0.0,2.2,93,0.00,,---,0.00,VWS V14.01,2013-11-26 18:10:00,
2013-11-26 10:12:00,42.3,41.2,30.15,SE,135,1.3,4.7,96,0.00,,---,0.00,VWS V14.01,2013-11-26 18:12:00,
2013-11-26 10:17:00,42.6,41.6,30.15,SE,135,2.0,4.7,96,0.00,,---,0.00,VWS V14.01,2013-11-26 18:17:00,
2013-11-26 10:20:00,47.3,45.1,30.12,SSW,202,1.1,1.6,92,0.00,,---,0.00,VWS V14.01,2013-11-26 18:20:00,
2013-11-26 10:22:00,43.0,41.9,30.15,South,180,0.0,3.6,96,0.00,,---,0.00,VWS V14.01,2013-11-26 18:22:00,
2013-11-26 10:28:00,43.3,42.0,30.15,SSW,202,0.9,3.6,95,0.00,,---,0.00,VWS V14.01,2013-11-26 18:28:00,
2013-11-26 10:30:00,48.0,45.5,30.12,WSW,248,2.0,2.2,91,0.00,,---,0.00,VWS V14.01,2013-11-26 18:30:00,
2013-11-26 10:33:00,43.7,42.4,30.15,SSE,158,0.0,2.5,95,0.00,,---,0.00,VWS V14.01,2013-11-26 18:33:00,
2013-11-26 10:38:00,43.9,42.5,30.15,SSE,158,2.7,5.4,95,0.00,,---,0.00,VWS V14.01,2013-11-26 18:38:00,
2013-11-26 10:40:00,48.6,45.8,30.12,SE,135,3.4,3.4,90,0.00,,---,0.00,VWS V14.01,2013-11-26 18:40:00,
2013-11-26 10:43:00,44.2,42.9,30.15,SSE,158,1.6,3.6,95,0.00,,---,0.00,VWS V14.01,2013-11-26 18:43:00,
2013-11-26 10:48:00,44.6,43.3,30.15,SE,135,2.7,3.6,95,0.00,,---,0.00,VWS V14.01,2013-11-26 18:48:00,
2013-11-26 10:50:00,49.3,46.5,30.12,SSE,158,0.0,3.4,90,0.00,,---,0.00,VWS V14.01,2013-11-26 18:50:00,
2013-11-26 10:53:00,45.3,43.7,30.15,SSW,202,0.9,3.6,94,0.00,,---,0.00,VWS V14.01,2013-11-26 18:53:00,
2013-11-26 10:58:00,45.9,44.2,30.15,SSW,202,2.2,3.6,94,0.00,,---,0.00,VWS V14.01,2013-11-26 18:58:00,
2013-11-26 11:00:00,49.6,46.5,30.12,SSE,158,0.9,1.3,89,0.00,,---,0.00,VWS V14.01,2013-11-26 19:00:00,
2013-11-26 11:03:00,46.2,44.6,30.15,SSE,158,1.1,1.6,94,0.00,,---,0.00,VWS V14.01,2013-11-26 19:03:00,
2013-11-26 11:08:00,46.8,44.8,30.12,SSW,202,0.0,2.2,93,0.00,,---,0.00,VWS V14.01,2013-11-26 19:08:00,
2013-11-26 11:10:00,50.2,46.8,30.09,SSE,158,0.0,2.0,88,0.00,,---,0.00,VWS V14.01,2013-11-26 19:10:00,
2013-11-26 11:13:00,46.9,44.7,30.12,SSE,158,0.0,0.9,92,0.00,,---,0.00,VWS V14.01,2013-11-26 19:13:00,
2013-11-26 11:18:00,47.3,45.1,30.12,SSW,202,1.3,1.6,92,0.00,,---,0.00,VWS V14.01,2013-11-26 19:18:00,
2013-11-26 11:20:00,50.5,46.8,30.09,SE,135,0.9,2.9,87,0.00,,---,0.00,VWS V14.01,2013-11-26 19:20:00,
2013-11-26 11:23:00,47.5,45.3,30.12,South,180,1.6,1.6,92,0.00,,---,0.00,VWS V14.01,2013-11-26 19:23:00,
2013-11-26 11:28:00,47.8,45.3,30.12,South,180,1.6,2.2,91,0.00,,---,0.00,VWS V14.01,2013-11-26 19:28:00,
2013-11-26 11:30:00,50.9,47.5,30.09,SSW,202,0.0,2.2,88,0.00,,---,0.00,VWS V14.01,2013-11-26 19:30:00,
2013-11-26 11:33:00,48.2,45.4,30.12,SSW,202,1.6,2.0,90,0.00,,---,0.00,VWS V14.01,2013-11-26 19:33:00,
2013-11-26 11:38:00,48.4,45.6,30.12,SSE,158,0.9,2.5,90,0.00,,---,0.00,VWS V14.01,2013-11-26 19:38:00,
2013-11-26 11:40:00,51.1,47.3,30.09,WSW,248,1.6,1.6,87,0.00,,---,0.00,VWS V14.01,2013-11-26 19:40:00,
2013-11-26 11:43:00,48.7,45.9,30.12,SSE,158,1.6,3.4,90,0.00,,---,0.00,VWS V14.01,2013-11-26 19:43:00,
2013-11-26 11:48:00,49.3,46.5,30.12,SSE,158,1.1,3.4,90,0.00,,---,0.00,VWS V14.01,2013-11-26 19:48:00,
2013-11-26 11:50:00,51.3,47.5,30.09,SSE,158,1.1,2.9,87,0.00,,---,0.00,VWS V14.01,2013-11-26 19:50:00,
2013-11-26 11:53:00,49.3,46.2,30.12,South,180,0.9,0.9,89,0.00,,---,0.00,VWS V14.01,2013-11-26 19:53:00,
2013-11-26 11:58:00,49.5,46.4,30.12,SSW,202,0.0,1.3,89,0.00,,---,0.00,VWS V14.01,2013-11-26 19:58:00,
2013-11-26 12:00:00,51.6,47.9,30.09,SE,135,2.7,2.7,87,0.00,,---,0.00,VWS V14.01,2013-11-26 20:00:00,
2013-11-26 12:03:00,50.0,46.6,30.12,SSW,202,0.0,1.3,88,0.00,,---,0.00,VWS V14.01,2013-11-26 20:03:00,
2013-11-26 12:08:00,50.2,46.8,30.09,SSE,158,0.0,1.3,88,0.00,,---,0.00,VWS V14.01,2013-11-26 20:08:00,
2013-11-26 12:10:00,51.6,47.6,30.09,South,180,0.0,2.7,86,0.00,,---,0.00,VWS V14.01,2013-11-26 20:10:00,
2013-11-26 12:13:00,50.4,46.6,30.09,SSE,158,1.6,1.6,87,0.00,,---,0.00,VWS V14.01,2013-11-26 20:13:00,
2013-11-26 12:18:00,50.5,46.8,30.09,SW,225,1.3,2.9,87,0.00,,---,0.00,VWS V14.01,2013-11-26 20:18:00,
2013-11-26 12:20:00,51.6,47.6,30.09,SSE,158,0.0,2.5,86,0.00,,---,0.00,VWS V14.01,2013-11-26 20:20:00,
2013-11-26 12:23:00,50.7,47.3,30.09,WSW,248,2.0,2.2,88,0.00,,---,0.00,VWS V14.01,2013-11-26 20:23:00,
2013-11-26 12:28:00,50.7,47.3,30.09,SSW,202,2.0,2.2,88,0.00,,---,0.00,VWS V14.01,2013-11-26 20:28:00,
2013-11-26 12:30:00,51.8,47.8,30.09,SSE,158,0.0,2.2,86,0.00,,---,0.00,VWS V14.01,2013-11-26 20:30:00,
2013-11-26 12:33:00,50.9,47.5,30.09,SW,225,1.1,1.6,88,0.00,,---,0.00,VWS V14.01,2013-11-26 20:33:00,
2013-11-26 12:38:00,51.1,47.3,30.09,WSW,248,1.6,1.6,87,0.00,,---,0.00,VWS V14.01,2013-11-26 20:38:00,
2013-11-26 12:40:00,52.0,47.9,30.09,SSE,158,0.0,1.3,86,0.00,,---,0.00,VWS V14.01,2013-11-26 20:40:00,
2013-11-26 12:43:00,51.1,47.3,30.09,South,180,1.1,2.9,87,0.00,,---,0.00,VWS V14.01,2013-11-26 20:43:00,
2013-11-26 12:48:00,51.3,47.5,30.09,SSE,158,1.6,2.9,87,0.00,,---,0.00,VWS V14.01,2013-11-26 20:48:00,
2013-11-26 12:50:00,52.2,48.1,30.06,SSW,202,0.0,2.9,86,0.00,,---,0.00,VWS V14.01,2013-11-26 20:50:00,
2013-11-26 12:53:00,51.3,47.5,30.09,SE,135,0.0,1.1,87,0.00,,---,0.00,VWS V14.01,2013-11-26 20:53:00,
2013-11-26 12:58:00,51.4,47.7,30.09,SSE,158,0.0,2.5,87,0.00,,---,0.00,VWS V14.01,2013-11-26 20:58:00,
2013-11-26 13:00:00,52.7,48.3,30.06,SSE,158,0.0,3.1,85,0.00,,---,0.00,VWS V14.01,2013-11-26 21:00:00,
2013-11-26 13:03:00,51.6,47.9,30.09,SE,135,1.1,2.7,87,0.00,,---,0.00,VWS V14.01,2013-11-26 21:03:00,
2013-11-26 13:08:00,51.6,47.6,30.09,South,180,0.0,2.7,86,0.00,,---,0.00,VWS V14.01,2013-11-26 21:08:00,
2013-11-26 13:10:00,53.1,48.7,30.06,SE,135,0.0,2.9,85,0.00,,---,0.00,VWS V14.01,2013-11-26 21:10:00,
2013-11-26 13:13:00,51.6,47.6,30.09,SSE,158,1.6,1.6,86,0.00,,---,0.00,VWS V14.01,2013-11-26 21:13:00,
2013-11-26 13:18:00,51.6,47.6,30.09,SE,135,0.0,2.5,86,0.00,,---,0.00,VWS V14.01,2013-11-26 21:18:00,
2013-11-26 13:20:00,53.2,48.8,30.06,SE,135,2.2,3.1,85,0.00,,---,0.00,VWS V14.01,2013-11-26 21:20:00,
2013-11-26 13:24:00,51.8,47.8,30.09,SSE,158,0.9,0.9,86,0.00,,---,0.00,VWS V14.01,2013-11-26 21:24:00,
2013-11-26 13:29:00,51.8,47.8,30.09,SSE,158,0.0,2.2,86,0.00,,---,0.00,VWS V14.01,2013-11-26 21:29:00,
2013-11-26 13:30:00,53.2,48.8,30.06,SE,135,0.0,2.9,85,0.00,,---,0.00,VWS V14.01,2013-11-26 21:30:00,
2013-11-26 13:34:00,52.0,47.9,30.09,South,180,0.0,1.1,86,0.00,,---,0.00,VWS V14.01,2013-11-26 21:34:00,
2013-11-26 13:39:00,52.0,47.9,30.09,SSE,158,0.0,1.3,86,0.00,,---,0.00,VWS V14.01,2013-11-26 21:39:00,
2013-11-26 13:40:00,53.1,48.7,30.06,SE,135,0.0,1.3,85,0.00,,---,0.00,VWS V14.01,2013-11-26 21:40:00,
2013-11-26 13:44:00,52.2,48.1,30.09,South,180,0.0,2.9,86,0.00,,---,0.00,VWS V14.01,2013-11-26 21:44:00,
2013-11-26 13:49:00,52.2,48.1,30.09,SSE,158,0.0,2.9,86,0.00,,---,0.00,VWS V14.01,2013-11-26 21:49:00,
2013-11-26 13:50:00,53.2,48.8,30.06,South,180,0.0,0.0,85,0.00,,---,0.00,VWS V14.01,2013-11-26 21:50:00,
2013-11-26 13:54:00,52.3,48.3,30.06,South,180,0.0,0.9,86,0.00,,---,0.00,VWS V14.01,2013-11-26 21:54:00,
2013-11-26 13:59:00,52.7,48.3,30.06,SE,135,0.9,3.1,85,0.00,,---,0.00,VWS V14.01,2013-11-26 21:59:00,
2013-11-26 14:00:00,53.6,48.9,30.06,South,180,1.3,2.0,84,0.00,,---,0.00,VWS V14.01,2013-11-26 22:00:00,
2013-11-26 14:04:00,52.9,48.5,30.06,SSE,158,1.1,1.1,85,0.00,,---,0.00,VWS V14.01,2013-11-26 22:04:00,
2013-11-26 14:09:00,53.1,48.7,30.06,ESE,112,2.0,2.9,85,0.00,,---,0.00,VWS V14.01,2013-11-26 22:09:00,
2013-11-26 14:10:00,53.6,48.6,30.06,SSW,202,0.0,2.5,83,0.00,,---,0.00,VWS V14.01,2013-11-26 22:10:00,
2013-11-26 14:14:00,53.2,48.8,30.06,SE,135,3.1,3.1,85,0.00,,---,0.00,VWS V14.01,2013-11-26 22:14:00,
2013-11-26 14:19:00,53.2,48.8,30.06,SE,135,2.2,3.1,85,0.00,,---,0.00,VWS V14.01,2013-11-26 22:19:00,
2013-11-26 14:20:00,53.8,48.8,30.03,South,180,0.0,1.3,83,0.00,,---,0.00,VWS V14.01,2013-11-26 22:20:00,
2013-11-26 14:24:00,53.4,49.0,30.06,ESE,112,1.1,2.9,85,0.00,,---,0.00,VWS V14.01,2013-11-26 22:24:00,
2013-11-26 14:29:00,53.2,48.8,30.06,SE,135,0.0,2.9,85,0.00,,---,0.00,VWS V14.01,2013-11-26 22:29:00,
2013-11-26 14:30:00,53.4,48.7,30.03,SSE,158,0.0,1.6,84,0.00,,---,0.00,VWS V14.01,2013-11-26 22:30:00,
2013-11-26 14:34:00,53.2,48.8,30.06,SW,225,0.0,1.3,85,0.00,,---,0.00,VWS V14.01,2013-11-26 22:34:00,
2013-11-26 14:39:00,53.1,48.7,30.06,South,180,0.0,1.3,85,0.00,,---,0.00,VWS V14.01,2013-11-26 22:39:00,
2013-11-26 14:40:00,53.1,48.7,30.03,SSE,158,0.0,0.0,85,0.00,,---,0.00,VWS V14.01,2013-11-26 22:40:00,
2013-11-26 14:44:00,53.2,48.8,30.06,SE,135,0.0,0.0,85,0.00,,---,0.00,VWS V14.01,2013-11-26 22:44:00,
2013-11-26 14:49:00,53.2,48.8,30.06,South,180,0.0,0.0,85,0.00,,---,0.00,VWS V14.01,2013-11-26 22:49:00,
2013-11-26 14:50:00,53.1,48.7,30.03,ESE,112,0.0,0.0,85,0.00,,---,0.00,VWS V14.01,2013-11-26 22:50:00,
2013-11-26 14:54:00,53.4,49.0,30.06,SE,135,1.3,1.3,85,0.00,,---,0.00,VWS V14.01,2013-11-26 22:54:00,
2013-11-26 14:59:00,53.6,48.9,30.06,South,180,1.3,2.0,84,0.00,,---,0.00,VWS V14.01,2013-11-26 22:59:00,
2013-11-26 15:00:00,52.9,48.5,30.03,SE,135,0.0,1.3,85,0.00,,---,0.00,VWS V14.01,2013-11-26 23:00:00,
2013-11-26 15:04:00,53.8,48.8,30.06,SSE,158,2.0,2.5,83,0.00,,---,0.00,VWS V14.01,2013-11-26 23:04:00,
2013-11-26 15:09:00,53.6,48.6,30.06,SSW,202,0.0,2.5,83,0.00,,---,0.00,VWS V14.01,2013-11-26 23:09:00,
2013-11-26 15:10:00,52.7,48.6,30.03,SE,135,0.0,0.0,86,0.00,,---,0.00,VWS V14.01,2013-11-26 23:10:00,
2013-11-26 15:14:00,53.8,48.8,30.06,SSE,158,0.0,0.0,83,0.00,,---,0.00,VWS V14.01,2013-11-26 23:14:00,
2013-11-26 15:19:00,53.8,48.8,30.06,SSW,202,0.0,1.3,83,0.00,,---,0.00,VWS V14.01,2013-11-26 23:19:00,
2013-11-26 15:20:00,52.5,48.8,30.03,SE,135,0.0,1.3,87,0.00,,---,0.00,VWS V14.01,2013-11-26 23:20:00,
2013-11-26 15:24:00,53.6,48.6,30.03,SSE,158,1.6,1.6,83,0.00,,---,0.00,VWS V14.01,2013-11-26 23:24:00,
2013-11-26 15:29:00,53.4,48.7,30.03,SSE,158,0.0,1.6,84,0.00,,---,0.00,VWS V14.01,2013-11-26 23:29:00,
2013-11-26 15:30:00,52.3,48.6,30.03,SSE,158,1.1,1.1,87,0.00,,---,0.00,VWS V14.01,2013-11-26 23:30:00,
2013-11-26 15:34:00,53.2,48.5,30.03,SSE,158,0.0,0.0,84,0.00,,---,0.00,VWS V14.01,2013-11-26 23:34:00,
2013-11-26 15:39:00,53.1,48.7,30.03,SSE,158,0.0,0.0,85,0.00,,---,0.00,VWS V14.01,2013-11-26 23:39:00,
2013-11-26 15:40:00,52.2,48.4,30.03,SSE,158,0.0,1.1,87,0.00,,---,0.00,VWS V14.01,2013-11-26 23:40:00,
2013-11-26 15:44:00,53.1,48.7,30.03,SSE,158,0.0,0.0,85,0.00,,---,0.00,VWS V14.01,2013-11-26 23:44:00,
2013-11-26 15:49:00,53.1,48.7,30.03,ESE,112,0.0,0.0,85,0.00,,---,0.00,VWS V14.01,2013-11-26 23:49:00,
2013-11-26 15:50:00,51.8,48.4,30.03,SSE,158,0.0,0.0,88,0.00,,---,0.00,VWS V14.01,2013-11-26 23:50:00,
2013-11-26 15:54:00,53.1,48.7,30.03,SE,135,0.0,1.3,85,0.00,,---,0.00,VWS V14.01,2013-11-26 23:54:00,
2013-11-26 15:59:00,52.9,48.5,30.03,SE,135,0.0,1.3,85,0.00,,---,0.00,VWS V14.01,2013-11-26 23:59:00,
2013-11-26 16:00:00,51.6,48.5,30.03,SSE,158,0.0,0.0,89,0.00,,---,0.00,VWS V14.01,2013-11-27 00:00:00,
2013-11-26 16:04:00,52.7,48.6,30.03,SE,135,0.0,0.0,86,0.00,,---,0.00,VWS V14.01,2013-11-27 00:04:00,
2013-11-26 16:09:00,52.7,48.6,30.03,SE,135,0.0,0.0,86,0.00,,---,0.00,VWS V14.01,2013-11-27 00:09:00,
2013-11-26 16:10:00,51.3,48.1,30.03,SSE,158,0.0,0.0,89,0.00,,---,0.00,VWS V14.01,2013-11-27 00:10:00,
2013-11-26 16:14:00,52.7,48.6,30.03,SE,135,0.0,1.3,86,0.00,,---,0.00,VWS V14.01,2013-11-27 00:14:00,
2013-11-26 16:19:00,52.5,48.8,30.03,SE,135,0.0,1.3,87,0.00,,---,0.00,VWS V14.01,2013-11-27 00:19:00,
2013-11-26 16:20:00,51.3,48.1,30.03,SSE,158,0.0,0.0,89,0.00,,---,0.00,VWS V14.01,2013-11-27 00:20:00,
2013-11-26 16:24:00,52.5,48.8,30.03,SSE,158,0.0,0.0,87,0.00,,---,0.00,VWS V14.01,2013-11-27 00:24:00,
2013-11-26 16:29:00,52.3,48.6,30.03,SSE,158,1.1,1.1,87,0.00,,---,0.00,VWS V14.01,2013-11-27 00:29:00,
2013-11-26 16:30:00,51.1,48.3,30.03,SE,135,0.0,2.5,90,0.00,,---,0.00,VWS V14.01,2013-11-27 00:30:00,
2013-11-26 16:34:00,52.3,48.6,30.03,SSE,158,0.0,1.1,87,0.00,,---,0.00,VWS V14.01,2013-11-27 00:34:00,
2013-11-26 16:39:00,52.2,48.4,30.03,SSE,158,0.0,1.1,87,0.00,,---,0.00,VWS V14.01,2013-11-27 00:39:00,
2013-11-26 16:40:00,50.9,48.1,30.03,SE,135,0.0,0.0,90,0.00,,---,0.00,VWS V14.01,2013-11-27 00:40:00,
2013-11-26 16:44:00,52.0,48.5,30.03,SSE,158,0.0,0.0,88,0.00,,---,0.00,VWS V14.01,2013-11-27 00:44:00,
2013-11-26 16:50:00,51.8,48.4,30.03,SSE,158,0.0,0.0,88,0.00,,---,0.00,VWS V14.01,2013-11-27 00:50:00,
2013-11-26 16:55:00,51.6,48.5,30.03,SSE,158,0.0,0.0,89,0.00,,---,0.00,VWS V14.01,2013-11-27 00:55:00,
2013-11-26 17:00:00,51.6,48.5,30.03,SSE,158,0.0,0.0,89,0.00,,---,0.00,VWS V14.01,2013-11-27 01:00:00,
2013-11-26 17:05:00,51.4,48.3,30.03,SSE,158,0.0,0.0,89,0.00,,---,0.00,VWS V14.01,2013-11-27 01:05:00,
2013-11-26 17:10:00,51.3,48.1,30.03,SSE,158,0.0,0.0,89,0.00,,---,0.00,VWS V14.01,2013-11-27 01:10:00,
2013-11-26 17:15:00,51.3,48.1,30.03,SSE,158,0.0,0.0,89,0.00,,---,0.00,VWS V14.01,2013-11-27 01:15:00,
2013-11-26 17:20:00,51.3,48.1,30.03,SSE,158,0.0,0.0,89,0.00,,---,0.00,VWS V14.01,2013-11-27 01:20:00,
2013-11-26 17:25:00,51.1,48.0,30.03,SE,135,1.1,2.5,89,0.00,,---,0.00,VWS V14.01,2013-11-27 01:25:00,
2013-11-26 17:30:00,51.1,48.2,30.03,SE,135,0.0,2.5,90,0.00,,---,0.00,VWS V14.01,2013-11-27 01:30:00,
2013-11-26 17:35:00,50.9,48.1,30.03,SE,135,0.0,0.0,90,0.00,,---,0.00,VWS V14.01,2013-11-27 01:35:00,
2013-11-26 17:40:00,50.9,48.1,30.03,SE,135,0.0,0.0,90,0.00,,---,0.00,VWS V14.01,2013-11-27 01:40:00,
2013-11-26 17:45:00,50.7,47.9,30.03,SE,135,0.0,0.0,90,0.00,,---,0.00,VWS V14.01,2013-11-27 01:45:00,
2013-11-26 17:50:00,50.7,47.9,30.03,SE,135,0.0,0.0,90,0.00,,---,0.00,VWS V14.01,2013-11-27 01:50:00,
2013-11-26 17:55:00,50.7,47.9,30.03,SE,135,0.0,0.0,90,0.00,,---,0.00,VWS V14.01,2013-11-27 01:55:00,
2013-11-26 18:00:00,50.5,48.0,30.03,SSE,158,0.0,0.0,91,0.00,,---,0.00,VWS V14.01,2013-11-27 02:00:00,
2013-11-26 18:05:00,50.5,48.0,30.03,SSE,158,0.0,0.0,91,0.00,,---,0.00,VWS V14.01,2013-11-27 02:05:00,
2013-11-26 18:10:00,50.4,47.8,30.03,SSE,158,0.0,0.0,91,0.00,,---,0.00,VWS V14.01,2013-11-27 02:10:00,
2013-11-26 18:15:00,50.4,47.8,30.03,SSE,158,0.0,0.0,91,0.00,,---,0.00,VWS V14.01,2013-11-27 02:15:00,
2013-11-26 18:20:00,50.2,47.7,30.03,SSE,158,1.6,1.6,91,0.00,,---,0.00,VWS V14.01,2013-11-27 02:20:00,
2013-11-26 18:25:00,50.2,47.7,30.03,SE,135,1.1,2.2,91,0.00,,---,0.00,VWS V14.01,2013-11-27 02:25:00,
2013-11-26 18:30:00,50.2,48.0,30.03,SE,135,0.0,0.0,92,0.00,,---,0.00,VWS V14.01,2013-11-27 02:30:00,
2013-11-26 18:35:00,50.0,47.8,30.03,SE,135,0.0,0.0,92,0.00,,---,0.00,VWS V14.01,2013-11-27 02:35:00,
2013-11-26 18:40:00,50.0,47.8,30.03,SSE,158,0.0,0.0,92,0.00,,---,0.00,VWS V14.01,2013-11-27 02:40:00,
2013-11-26 18:45:00,50.0,47.8,30.03,South,180,0.0,0.0,92,0.00,,---,0.00,VWS V14.01,2013-11-27 02:45:00,
2013-11-26 18:50:00,49.6,47.4,30.03,SSE,158,0.0,0.0,92,0.00,,---,0.00,VWS V14.01,2013-11-27 02:50:00,
2013-11-26 18:55:00,49.5,47.5,30.03,SSE,158,0.0,0.0,93,0.00,,---,0.00,VWS V14.01,2013-11-27 02:55:00,
2013-11-26 19:00:00,49.3,47.3,30.03,SE,135,2.5,2.7,93,0.00,,---,0.00,VWS V14.01,2013-11-27 03:00:00,
2013-11-26 19:05:00,49.1,47.2,30.03,SE,135,2.5,3.1,93,0.00,,---,0.00,VWS V14.01,2013-11-27 03:05:00,
2013-11-26 19:10:00,49.1,47.2,30.03,SE,135,0.0,0.9,93,0.00,,---,0.00,VWS V14.01,2013-11-27 03:10:00,
2013-11-26 19:15:00,48.7,46.8,30.03,SE,135,1.6,2.5,93,0.00,,---,0.00,VWS V14.01,2013-11-27 03:15:00,
2013-11-26 19:20:00,48.6,46.6,30.03,SSE,158,0.0,0.0,93,0.00,,---,0.00,VWS V14.01,2013-11-27 03:20:00,
2013-11-26 19:25:00,48.4,46.5,30.03,SE,135,2.5,2.5,93,0.00,,---,0.00,VWS V14.01,2013-11-27 03:25:00,
2013-11-26 19:30:00,48.2,46.3,30.03,SSE,158,0.9,0.9,93,0.00,,---,0.00,VWS V14.01,2013-11-27 03:30:00,
2013-11-26 19:35:00,48.0,46.4,30.03,SSE,158,0.0,0.9,94,0.00,,---,0.00,VWS V14.01,2013-11-27 03:35:00,
2013-11-26 19:40:00,48.0,46.4,30.03,SSE,158,0.0,0.0,94,0.00,,---,0.00,VWS V14.01,2013-11-27 03:40:00,
2013-11-26 19:45:00,47.7,46.0,30.03,SSE,158,2.2,2.2,94,0.00,,---,0.00,VWS V14.01,2013-11-27 03:45:00,
2013-11-26 19:50:00,47.7,46.0,30.03,SSE,158,2.5,2.5,94,0.00,,---,0.00,VWS V14.01,2013-11-27 03:50:00,
2013-11-26 19:55:00,47.5,45.8,30.03,South,180,0.0,2.9,94,0.00,,---,0.00,VWS V14.01,2013-11-27 03:55:00,
2013-11-26 20:00:00,47.3,45.7,30.03,South,180,0.0,0.0,94,0.00,,---,0.00,VWS V14.01,2013-11-27 04:00:00,
2013-11-26 20:05:00,47.1,45.5,30.03,SSE,158,1.6,2.0,94,0.00,,---,0.00,VWS V14.01,2013-11-27 04:05:00,
2013-11-26 20:10:00,46.9,45.3,30.03,SSE,158,0.0,0.9,94,0.00,,---,0.00,VWS V14.01,2013-11-27 04:10:00,
2013-11-26 20:16:00,46.9,45.3,30.03,SSE,158,2.0,2.0,94,0.00,,---,0.00,VWS V14.01,2013-11-27 04:16:00,
2013-11-26 20:20:00,45.3,44.0,30.03,SSE,158,1.3,2.7,95,0.00,,---,0.00,VWS V14.01,2013-11-27 04:20:00,
2013-11-26 20:21:00,46.8,45.1,30.03,SSE,158,0.0,2.9,94,0.00,,---,0.00,VWS V14.01,2013-11-27 04:21:00,
2013-11-26 20:26:00,46.8,45.1,30.03,SSE,158,2.5,2.9,94,0.00,,---,0.00,VWS V14.01,2013-11-27 04:26:00,
2013-11-26 20:30:00,45.3,44.0,30.03,SSE,158,2.5,2.5,95,0.00,,---,0.00,VWS V14.01,2013-11-27 04:30:00,
2013-11-26 20:31:00,46.6,45.0,30.03,SSE,158,2.2,2.9,94,0.00,,---,0.00,VWS V14.01,2013-11-27 04:31:00,
2013-11-26 20:36:00,46.6,45.0,30.03,SE,135,2.0,2.9,94,0.00,,---,0.00,VWS V14.01,2013-11-27 04:36:00,
2013-11-26 20:40:00,45.0,43.6,30.03,SSE,158,2.7,2.9,95,0.00,,---,0.00,VWS V14.01,2013-11-27 04:40:00,
2013-11-26 20:41:00,46.4,44.8,30.03,SE,135,2.5,2.5,94,0.00,,---,0.00,VWS V14.01,2013-11-27 04:41:00,
2013-11-26 20:46:00,46.2,44.6,30.03,SE,135,2.0,2.7,94,0.00,,---,0.00,VWS V14.01,2013-11-27 04:46:00,
2013-11-26 20:50:00,44.6,43.3,30.00,SSE,158,3.1,3.1,95,0.00,,---,0.00,VWS V14.01,2013-11-27 04:50:00,
2013-11-26 20:51:00,46.2,44.9,30.03,SE,135,2.0,2.0,95,0.00,,---,0.00,VWS V14.01,2013-11-27 04:51:00,
2013-11-26 20:56:00,46.0,44.7,30.03,SE,135,1.3,2.2,95,0.00,,---,0.00,VWS V14.01,2013-11-27 04:56:00,
2013-11-26 21:00:00,44.4,43.1,30.00,SSE,158,1.6,3.1,95,0.00,,---,0.00,VWS V14.01,2013-11-27 05:00:00,
2013-11-26 21:01:00,45.9,44.5,30.03,SE,135,0.0,0.9,95,0.00,,---,0.00,VWS V14.01,2013-11-27 05:01:00,
2013-11-26 21:02:00,45.7,44.3,30.03,SE,135,0.0,0.9,95,0.00,,---,0.00,VWS V14.01,2013-11-27 05:02:00,
2013-11-26 21:03:00,45.7,44.3,30.03,SE,135,0.0,0.9,95,0.00,,---,0.00,VWS V14.01,2013-11-27 05:03:00,
2013-11-26 21:06:00,45.7,44.3,30.03,SE,135,0.9,0.9,95,0.00,,---,0.00,VWS V14.01,2013-11-27 05:06:00,
2013-11-26 21:10:00,45.5,44.2,30.03,SE,135,1.1,1.3,95,0.00,,---,0.00,VWS V14.01,2013-11-27 05:10:00,
2013-11-26 21:15:00,45.5,44.2,30.03,SE,135,0.0,2.7,95,0.00,,---,0.00,VWS V14.01,2013-11-27 05:15:00,
2013-11-26 21:20:00,45.3,44.0,30.03,SSE,158,2.2,2.2,95,0.00,,---,0.00,VWS V14.01,2013-11-27 05:20:00,
2013-11-26 21:25:00,45.3,44.0,30.03,SSE,158,1.3,2.2,95,0.00,,---,0.00,VWS V14.01,2013-11-27 05:25:00,
2013-11-26 21:30:00,45.1,43.8,30.03,SSE,158,2.5,2.5,95,0.00,,---,0.00,VWS V14.01,2013-11-27 05:30:00,
2013-11-26 21:35:00,45.1,43.8,30.03,SSE,158,0.9,2.9,95,0.00,,---,0.00,VWS V14.01,2013-11-27 05:35:00,
2013-11-26 21:40:00,45.0,43.6,30.03,SSE,158,2.7,2.7,95,0.00,,---,0.00,VWS V14.01,2013-11-27 05:40:00,
2013-11-26 21:45:00,44.8,43.4,30.03,SSE,158,0.9,2.7,95,0.00,,---,0.00,VWS V14.01,2013-11-27 05:45:00,
2013-11-26 21:50:00,44.6,43.3,30.00,SSE,158,1.1,3.1,95,0.00,,---,0.00,VWS V14.01,2013-11-27 05:50:00,
2013-11-26 21:55:00,44.6,43.3,30.00,South,180,0.0,3.1,95,0.00,,---,0.00,VWS V14.01,2013-11-27 05:55:00,
2013-11-26 22:00:00,44.4,43.1,30.00,SE,135,2.0,2.0,95,0.00,,---,0.00,VWS V14.01,2013-11-27 06:00:00,
2013-11-26 22:05:00,44.4,43.1,30.00,SE,135,2.5,3.4,95,0.00,,---,0.00,VWS V14.01,2013-11-27 06:05:00,
2013-11-26 22:10:00,44.2,42.9,30.00,SE,135,2.0,2.2,95,0.00,,---,0.00,VWS V14.01,2013-11-27 06:10:00,
2013-11-26 22:15:00,44.2,42.9,30.00,SSE,158,3.6,3.6,95,0.00,,---,0.00,VWS V14.01,2013-11-27 06:15:00,
2013-11-26 22:20:00,44.1,43.0,30.00,SE,135,1.6,1.6,96,0.00,,---,0.00,VWS V14.01,2013-11-27 06:20:00,
2013-11-26 22:25:00,44.1,43.0,30.00,SE,135,0.0,3.4,96,0.00,,---,0.00,VWS V14.01,2013-11-27 06:25:00,
2013-11-26 22:30:00,43.9,42.8,30.00,SE,135,2.0,2.0,96,0.00,,---,0.00,VWS V14.01,2013-11-27 06:30:00,
2013-11-26 22:35:00,43.7,42.6,30.00,SE,135,1.3,2.5,96,0.00,,---,0.00,VWS V14.01,2013-11-27 06:35:00,
2013-11-26 22:40:00,43.5,42.5,30.00,SE,135,2.9,2.9,96,0.00,,---,0.00,VWS V14.01,2013-11-27 06:40:00,
2013-11-26 22:45:00,43.5,42.5,30.00,South,180,0.0,2.9,96,0.00,,---,0.00,VWS V14.01,2013-11-27 06:45:00,
2013-11-26 22:50:00,43.3,42.3,30.00,SSE,158,2.2,2.5,96,0.00,,---,0.00,VWS V14.01,2013-11-27 06:50:00,
2013-11-26 22:55:00,43.3,42.3,30.00,SE,135,2.0,2.5,96,0.00,,---,0.00,VWS V14.01,2013-11-27 06:55:00,
2013-11-26 23:00:00,43.2,42.1,30.00,South,180,0.0,0.0,96,0.00,,---,0.00,VWS V14.01,2013-11-27 07:00:00,
2013-11-26 23:05:00,43.0,41.9,30.00,SSE,158,2.5,2.5,96,0.00,,---,0.00,VWS V14.01,2013-11-27 07:05:00,
2013-11-26 23:10:00,43.0,41.9,30.00,SE,135,2.0,2.5,96,0.00,,---,0.00,VWS V14.01,2013-11-27 07:10:00,
2013-11-26 23:15:00,43.0,41.9,30.00,SE,135,0.0,2.5,96,0.00,,---,0.00,VWS V14.01,2013-11-27 07:15:00,
2013-11-26 23:20:00,43.0,41.9,30.00,SE,135,0.9,0.9,96,0.00,,---,0.00,VWS V14.01,2013-11-27 07:20:00,
2013-11-26 23:25:00,42.8,41.7,30.00,SSE,158,0.0,0.9,96,0.00,,---,0.00,VWS V14.01,2013-11-27 07:25:00,
2013-11-26 23:30:00,42.8,41.7,30.00,SSE,158,2.0,2.0,96,0.00,,---,0.00,VWS V14.01,2013-11-27 07:30:00,
2013-11-26 23:35:00,42.8,41.7,30.00,SE,135,0.0,2.7,96,0.00,,---,0.00,VWS V14.01,2013-11-27 07:35:00,
2013-11-26 23:40:00,43.0,41.9,30.00,SSE,158,2.0,2.0,96,0.00,,---,0.00,VWS V14.01,2013-11-27 07:40:00,
2013-11-26 23:46:00,42.8,41.7,30.00,SE,135,2.5,2.7,96,0.00,,---,0.00,VWS V14.01,2013-11-27 07:46:00,
2013-11-26 23:50:00,41.9,41.1,29.97,SSE,158,2.7,3.6,97,0.00,,---,0.00,VWS V14.01,2013-11-27 07:50:00,
2013-11-26 23:51:00,42.6,41.6,30.00,SE,135,2.5,2.5,96,0.00,,---,0.00,VWS V14.01,2013-11-27 07:51:00,
2013-11-26 23:56:00,42.6,41.6,30.00,SSE,158,2.2,2.9,96,0.00,,---,0.00,VWS V14.01,2013-11-27 07:56:00,